Theta_e
323 329 330 328 323 317 315 313 311 308 306 306 307 307 311 314 311 307 307 313 317 317 318 317 319 320 323 321 318 316 314 312 311 310 310 310 310 310 311 311 312 312 312
330 327 323 318 313 313 311 310 308 303 301 302 304 307 309 306 301 299 299 302 311 313 314 316 318 322 321 318 315 313 312 310 310 309 308 308 308 309 309 309 310 310 310
325 321 317 313 309 309 308 306 301 299 299 302 303 304 301 297 295 295 296 296 297 309 314 316 317 316 315 313 311 310 310 309 308 307 306 306 307 307 307 308 308 308 308
320 316 312 306 305 306 304 301 299 297 298 299 299 299 298 295 293 293 294 294 296 299 305 307 308 308 309 309 309 308 308 307 306 305 305 305 305 305 306 306 306 306 307
313 310 306 302 302 302 302 299 296 296 297 298 298 296 294 291 290 292 291 293 295 296 295 295 297 299 301 303 305 306 306 305 304 303 303 303 303 304 304 304 304 305 305
308 305 301 299 298 297 298 297 295 294 295 296 296 294 292 291 289 288 289 293 293 290 288 286 285 286 294 297 300 302 303 303 302 302 302 302 302 302 302 303 303 304 304
304 301 298 296 295 295 294 296 295 292 293 293 295 293 291 289 287 287 288 290 289 288 286 285 284 283 284 292 295 299 300 301 300 300 300 300 300 300 301 301 302 302 303
301 299 296 294 294 293 293 293 293 292 291 291 292 293 289 290 287 286 286 289 287 287 285 284 283 282 282 283 287 293 296 297 298 298 298 298 298 299 300 300 301 301 301
299 298 296 294 293 293 291 290 291 291 289 290 289 289 285 284 286 288 283 285 285 283 283 283 282 282 281 281 283 286 291 292 294 295 296 296 296 297 298 299 299 299 300
297 296 294 293 292 291 289 289 290 291 292 288 288 289 285 286 282 281 284 282 284 283 281 281 280 281 280 279 282 285 287 289 290 292 292 293 294 295 297 297 298 298 298
295 294 293 292 291 289 288 288 288 287 287 285 285 286 285 282 282 281 278 279 280 282 281 280 279 279 279 278 279 282 285 287 288 289 289 290 292 293 295 295 296 296 296
292 292 292 292 291 289 289 288 286 285 284 283 283 283 282 280 279 278 277 277 278 279 281 279 278 278 278 278 280 283 283 285 286 287 287 288 289 291 292 293 294 294 294
291 290 291 291 290 289 288 286 285 284 282 282 281 281 281 281 281 281 279 277 277 278 280 279 278 278 279 278 278 282 280 282 285 285 286 286 288 289 289 290 291 291 292
291 291 290 290 289 288 285 284 283 282 281 281 280 280 280 280 280 281 280 277 274 276 278 278 278 277 277 277 278 280 276 280 283 284 284 285 286 287 288 288 289 289 290
291 290 289 288 286 285 284 283 282 281 281 280 280 280 279 278 279 278 279 279 276 272 273 276 276 277 277 277 277 276 275 279 281 282 283 283 285 286 286 286 287 287 288
290 289 288 285 284 284 283 282 281 281 280 280 280 279 278 277 277 278 278 277 277 275 272 276 275 275 276 277 277 276 275 277 278 279 280 282 283 283 284 284 285 285 286
290 287 286 285 284 282 282 282 282 281 280 280 279 279 278 277 276 276 277 276 276 275 273 274 275 274 274 274 274 274 275 274 274 277 279 281 281 282 281 282 283 283 283
287 286 284 284 283 282 282 282 281 280 279 279 279 278 276 277 275 275 276 275 275 275 274 271 272 272 273 273 272 272 273 274 273 276 279 279 279 279 280 280 281 281 281
285 284 284 283 282 283 282 281 281 280 280 279 279 277 277 276 275 275 274 274 274 276 274 273 271 273 272 272 272 271 271 271 273 275 276 276 277 277 278 278 279 278 277
284 284 283 283 283 282 282 281 281 280 280 279 280 279 277 276 276 275 275 275 275 274 273 272 272 271 271 272 270 268 268 270 269 271 272 273 274 274 275 276 276 275 276
283 283 282 282 282 282 282 280 280 279 279 278 279 279 278 277 279 278 276 275 274 273 272 271 270 269 269 269 267 268 267 268 268 269 268 268 268 268 269 272 272 273 276
281 281 281 281 280 282 284 286 283 279 279 278 277 277 278 277 279 281 282 281 277 273 272 271 269 268 269 268 268 268 266 265 262 268 265 264 267 267 268 268 272 274 276
279 279 279 279 279 280 285 286 286 281 279 278 277 278 277 278 277 277 280 281 280 279 277 273 270 269 268 268 268 267 266 264 263 265 264 262 266 265 266 267 271 274 275
278 278 278 278 278 278 283 285 286 282 279 278 277 277 277 276 276 276 275 274 274 273 273 272 271 270 269 270 269 268 264 262 262 263 265 258 264 262 264 265 270 272 273
277 277 277 277 277 277 282 284 284 281 280 278 278 277 276 276 278 281 275 273 273 272 275 276 274 272 271 271 270 263 254 253 254 260 263 260 261 260 262 262 265 270 271
278 277 277 276 276 277 281 283 283 280 278 278 277 277 279 277 279 281 277 274 272 271 270 267 267 266 266 265 267 264 260 251 253 252 261 259 260 259 256 260 262 263 263
Wind_Speed
3 3 3 3 3 4 3 4 4 4 5 5 5 6 7 8 8 5 6 19 18 17 16 15 14 14 18 19 20 20 18 18 19 19 20 20 20 20 19 19 20 21 21
3 3 3 4 4 3 4 4 4 4 4 4 6 7 8 9 9 8 6 8 19 18 16 15 14 19 20 20 20 18 19 18 20 20 20 20 20 21 21 21 20 21 22
5 4 4 3 3 4 5 5 5 5 5 5 8 8 8 9 8 9 7 6 6 17 18 19 19 19 19 18 17 17 17 17 18 18 18 19 20 21 21 22 21 22 22
6 5 4 4 3 4 4 4 3 5 5 5 5 6 7 8 9 8 7 6 6 7 16 22 22 21 19 18 18 18 18 18 19 19 19 19 20 20 21 22 24 23 23
6 5 4 4 4 4 4 4 5 4 4 4 7 7 7 7 7 6 8 9 10 8 7 17 21 20 19 18 18 18 18 19 18 19 19 19 20 20 22 23 23 24 24
7 5 5 5 4 4 4 4 5 5 4 4 8 8 6 5 5 6 6 7 8 9 8 9 8 10 19 20 20 19 20 19 19 19 19 20 20 21 22 23 23 24 25
7 6 4 5 4 4 4 3 3 5 5 3 4 5 5 5 7 5 4 5 7 7 8 7 6 5 7 17 20 20 21 21 20 20 20 20 21 22 23 23 24 25 25
7 6 5 4 5 4 5 4 3 3 3 4 2 3 3 0 4 5 4 5 6 4 6 7 7 7 6 5 13 19 20 21 21 21 21 21 22 23 23 24 24 25 25
7 6 6 5 5 4 4 4 3 4 4 3 5 3 2 3 3 0 5 4 4 4 4 4 6 7 7 5 8 11 20 21 20 20 22 22 23 23 23 25 24 26 27
7 6 5 5 5 4 5 4 3 2 3 3 1 4 5 2 3 2 0 1 3 4 4 4 4 5 5 5 9 14 18 21 20 20 21 22 22 23 24 25 25 27 28
6 6 5 5 5 4 5 5 5 5 3 3 2 2 2 4 4 2 2 2 1 2 3 3 3 3 4 4 4 9 18 20 19 20 21 23 23 24 25 25 26 27 28
5 5 5 5 5 5 5 5 5 6 6 5 3 3 2 2 1 2 2 0 2 2 2 3 2 1 2 3 9 16 19 20 20 21 21 22 23 24 25 25 27 27 29
4 4 5 5 3 5 5 4 5 6 4 4 4 3 3 2 2 3 3 1 1 2 1 2 2 1 5 3 5 15 16 18 20 21 22 23 23 24 26 25 27 29 30
5 5 6 7 4 5 5 5 4 4 4 5 6 4 3 3 2 2 3 3 0 2 2 2 2 2 4 4 9 15 9 18 21 22 23 23 24 25 25 26 28 30 29
5 7 6 7 5 5 6 6 4 4 4 4 4 4 4 2 3 3 2 2 3 1 3 2 2 2 4 3 8 7 10 18 20 21 23 23 24 24 24 27 30 30 30
6 7 5 6 6 6 6 6 4 4 5 4 3 5 3 3 3 2 3 2 1 3 3 2 2 2 3 5 8 8 10 16 17 20 22 22 24 24 24 29 30 29 30
7 7 6 5 5 6 5 5 5 5 5 5 4 5 4 5 3 3 2 2 3 2 3 3 2 2 2 4 7 5 8 8 7 19 22 23 22 22 27 30 28 29 31
5 6 7 6 6 5 5 6 6 5 6 6 6 5 6 4 4 4 3 4 3 3 3 5 3 2 4 3 5 8 8 9 8 15 24 22 21 23 29 28 28 29 31
6 5 5 6 5 5 5 5 5 6 5 6 6 6 6 5 5 4 4 4 3 3 3 3 4 2 3 2 5 6 7 10 8 16 21 18 20 26 27 25 28 30 32
5 5 4 5 5 5 5 5 5 5 5 6 6 6 6 7 7 6 5 5 4 3 3 4 4 4 3 3 5 6 7 7 10 9 12 14 22 23 22 23 28 31 31
4 5 5 5 5 5 5 6 6 6 6 6 6 6 6 7 11 10 5 5 4 3 3 4 3 2 3 4 6 5 8 9 10 2 4 11 9 9 9 16 24 27 33
5 4 5 5 6 5 9 12 8 5 7 6 7 6 6 8 11 14 14 12 8 5 5 3 2 3 5 4 4 6 7 7 8 1 10 12 8 7 8 10 26 31 30
4 5 6 6 6 5 12 14 15 6 7 7 8 7 7 6 8 7 13 14 12 9 9 4 5 4 3 2 5 7 7 7 7 10 10 10 4 7 9 11 28 28 28
5 5 6 6 6 7 13 15 15 7 7 9 8 8 8 8 9 9 8 6 6 6 5 4 4 3 4 4 3 5 5 7 8 8 6 6 9 10 12 11 23 25 34
5 5 4 6 7 8 14 16 14 8 9 10 8 8 9 10 15 19 9 9 8 7 8 9 7 4 5 7 6 2 3 2 3 3 3 6 8 16 10 7 5 30 32
5 4 6 6 7 9 13 17 16 6 8 8 7 10 17 15 19 21 13 11 10 8 7 4 2 1 2 3 4 1 1 1 2 3 2 9 7 9 12 2 13 12 16
Wind_Direction
178 162 124 79 65 70 62 60 63 51 43 47 43 53 65 69 66 58 51 47 52 54 49 46 51 55 62 57 49 37 30 21 23 19 14 11 8 5 3 1 0 357 355
160 115 95 83 68 66 68 70 63 54 52 50 52 61 70 69 64 59 53 46 53 51 50 53 57 58 55 46 38 33 24 21 21 17 12 10 4 2 0 359 357 356 354
114 107 95 82 69 63 73 65 51 49 54 54 62 66 72 66 62 55 50 46 40 40 53 50 52 54 47 40 30 26 21 19 19 14 10 7 2 0 357 352 352 353 350
93 90 88 74 69 75 81 70 58 55 51 62 73 61 70 66 62 56 51 47 48 40 57 56 54 49 42 38 29 23 18 17 15 10 6 3 2 358 352 353 349 347 345
85 95 89 78 77 79 71 76 51 75 68 72 79 65 58 54 45 54 52 50 57 59 59 56 51 46 40 33 27 21 18 15 13 9 4 2 358 354 355 348 344 343 340
88 93 85 77 76 85 77 71 77 53 73 74 84 72 57 53 50 47 48 64 65 62 62 56 42 30 33 29 23 18 18 13 11 4 3 0 355 355 348 344 341 341 338
83 83 81 80 71 79 83 104 95 70 44 23 110 80 57 54 54 39 47 59 68 62 62 58 53 36 19 25 17 16 14 11 6 4 360 355 353 350 344 340 342 339 337
87 93 94 85 80 95 77 71 102 113 72 7 122 115 155 148 55 41 40 74 57 63 71 66 56 45 30 10 18 12 11 6 4 360 356 352 352 345 343 343 340 339 337
88 94 93 96 82 73 74 65 57 101 131 30 36 152 130 205 126 136 36 64 75 66 65 73 56 43 29 14 17 359 6 3 1 355 353 352 348 344 344 341 341 339 338
87 85 87 91 91 90 82 74 62 81 116 133 87 48 51 102 146 151 281 90 102 93 82 67 58 42 24 11 8 359 4 359 356 350 349 350 346 343 343 341 341 338 336
83 84 84 87 88 89 80 76 62 61 61 106 94 130 73 58 51 109 165 311 26 68 92 86 73 50 21 5 342 351 359 354 352 350 348 347 344 343 342 336 340 336 333
99 88 93 93 93 89 83 82 82 80 80 83 79 72 104 123 91 97 106 220 252 272 156 115 89 32 29 7 357 356 355 351 346 348 346 345 342 341 340 336 335 334 331
116 114 117 96 92 96 99 103 86 80 82 98 97 85 77 92 130 117 112 157 288 294 242 169 149 129 28 3 344 350 346 346 343 346 345 342 337 338 335 337 333 330 327
129 142 126 116 126 121 107 93 92 91 104 98 104 102 105 81 70 108 138 144 176 297 312 266 182 28 26 354 336 346 331 345 346 342 339 338 333 333 330 332 329 325 322
162 131 135 129 135 124 115 117 114 132 124 116 122 119 107 109 97 98 103 116 147 237 276 281 293 22 5 329 327 341 332 335 341 332 334 331 329 329 328 327 323 322 322
133 132 152 140 144 132 130 133 143 152 127 115 132 144 133 122 125 119 112 118 114 175 252 240 262 317 325 326 323 332 321 331 325 327 324 324 324 326 326 322 321 322 322
155 165 146 142 145 146 156 154 168 156 143 150 164 164 157 157 160 139 139 157 163 176 226 285 267 282 285 309 309 309 314 319 318 318 316 321 323 322 326 321 323 323 321
157 155 146 162 165 168 168 173 174 168 170 180 185 170 180 171 167 179 186 188 197 196 200 260 267 267 255 286 287 309 321 314 316 309 314 321 320 325 325 322 322 322 323
151 144 167 174 167 180 177 196 185 182 193 195 191 193 186 175 191 189 197 203 210 220 214 247 277 248 267 276 304 307 311 307 308 315 310 317 322 322 323 322 323 323 325
156 162 183 176 182 189 195 196 189 198 206 207 200 198 192 194 201 196 202 206 217 222 228 249 254 268 254 281 300 307 319 317 310 308 299 309 320 318 319 322 319 321 319
179 172 182 202 204 203 203 197 199 204 209 217 214 212 210 206 213 206 194 204 205 214 231 251 251 259 266 313 323 313 312 314 307 279 319 310 315 309 308 320 310 312 315
199 187 204 207 214 217 221 224 213 209 213 216 223 226 221 219 227 225 227 221 202 193 229 215 224 255 277 299 300 313 317 332 331 290 333 304 303 304 303 311 302 313 309
198 216 221 216 234 230 234 232 228 211 217 219 220 222 220 220 212 225 236 234 239 234 244 216 239 240 274 281 306 308 313 314 288 302 314 293 315 309 304 303 300 304 316
217 228 232 228 235 240 237 240 236 215 222 226 221 220 217 216 212 211 211 224 214 216 224 230 201 206 246 261 259 312 322 297 282 276 321 282 327 309 311 293 293 305 321
216 214 226 231 233 248 239 242 242 231 230 232 227 224 222 225 223 229 209 222 217 210 218 229 189 257 296 318 316 50 327 339 298 300 359 330 330 317 313 290 296 315 316
230 207 239 229 236 253 247 245 244 234 240 243 233 232 222 225 229 232 228 212 218 208 177 145 191 223 333 306 330 347 283 217 270 314 303 334 343 354 320 271 327 308 312